Georgetown, DE

5:34 PM EDT on April 24, 2018 (GMT -0400)
Sussex County

Weather History for KGED - November, 2013

Change the Weather History Date:

Monday, November 4, 2013

  Actual Average Record
Temperature  
Mean Temperature 42 °F 52 °F  
Max Temperature 50 °F 62 °F 80 °F (1961)
Min Temperature 34 °F 42 °F 22 °F (1951)
Degree Days  
Heating Degree Days 23 13  
Month to date heating degree days 41 51  
Since 1 July heating degree days 284 337  
Cooling Degree Days 0 0  
Month to date cooling degree days 5 0  
Year to date cooling degree days 1396 1194  
Moisture  
Dew Point 29 °F    
Average Humidity 61    
Maximum Humidity 79    
Minimum Humidity 42    
Precipitation  
Precipitation 0.00 in 0.12 in 0.91 in (2004)
Month to date precipitation 0.05 0.49  
Year to date precipitation 47.46 37.61  
Sea Level Pressure  
Sea Level Pressure 30.57 in    
Wind  
Wind Speed 8 mph (North)    
Max Wind Speed 20 mph    
Max Gust Speed 24 mph    
Visibility 10 miles    
Events      
T = Trace of Precipitation, MM = Missing Value Source: NWS Daily Summary

Daily Weather History Graph

Daily Weather History Graph

Search for Another Location

Airport or City:

Astronomy

Nov. 04, 2013 Rise Set
Actual Time 6:31 AM EST 4:57 PM EST
Civil Twilight 6:04 AM EST 5:25 PM EST
Nautical Twilight 5:32 AM EST 5:56 PM EST
Astronomical Twilight 5:01 AM EST 6:28 PM EST
Moon 7:39 AM EST (11/4) 6:01 PM EST (11/4)
Length of Visible Light 11h 21m
Length of Day
10h 25m
New Moon, 2% of the Moon is Illuminated
Nov 4
New Moon
Nov 10
First Quarter
Nov 17
Full
Nov 25
Last Quarter
Dec 2
New

Hourly Weather History & Observations

Time (EST) Temp. Windchill Dew Point Humidity Pressure Visibility Wind Dir Wind Speed Gust Speed Precip Events Conditions
12:54 AM 39.9 °F 33.9 °F 25.0 °F 55% 30.46 in 10.0 mi NNE 9.2 mph - N/A   Clear
1:54 AM 39.0 °F 33.4 °F 24.1 °F 55% 30.47 in 10.0 mi North 8.1 mph - N/A   Clear
2:54 AM 37.9 °F 32.7 °F 24.1 °F 57% 30.49 in 10.0 mi North 6.9 mph - N/A   Clear
3:54 AM 37.9 °F 32.7 °F 24.1 °F 57% 30.51 in 10.0 mi North 6.9 mph - N/A   Clear
4:54 AM 37.0 °F 33.3 °F 25.0 °F 62% 30.53 in 10.0 mi NNW 4.6 mph - N/A   Clear
5:54 AM 34.0 °F 28.8 °F 25.0 °F 70% 30.53 in 10.0 mi NNW 5.8 mph - N/A   Clear
6:54 AM 35.1 °F 31.0 °F 26.1 °F 70% 30.54 in 10.0 mi NNW 4.6 mph - N/A   Clear
7:54 AM 39.9 °F 37.8 °F 28.0 °F 63% 30.59 in 10.0 mi NNW 3.5 mph - N/A   Clear
8:54 AM 44.1 °F 36.8 °F 28.9 °F 55% 30.59 in 10.0 mi NE 16.1 mph - N/A   Clear
9:54 AM 46.0 °F 39.0 °F 30.0 °F 54% 30.59 in 10.0 mi NE 17.3 mph 20.7 mph N/A   Clear
10:54 AM 48.0 °F - 30.9 °F 52% 30.61 in 10.0 mi NE 12.7 mph 19.6 mph N/A   Clear
11:54 AM 48.9 °F - 27.0 °F 43% 30.60 in 10.0 mi NE 13.8 mph - N/A   Clear
12:54 PM 48.9 °F - 30.0 °F 48% 30.58 in 10.0 mi NNE 8.1 mph - N/A   Clear
1:54 PM 48.9 °F - 30.9 °F 50% 30.58 in 10.0 mi NE 11.5 mph - N/A   Partly Cloudy
2:54 PM 48.0 °F - 30.9 °F 52% 30.59 in 10.0 mi NNE 8.1 mph - N/A   Clear
3:54 PM 48.0 °F - 30.0 °F 50% 30.60 in 10.0 mi NNE 8.1 mph - N/A   Clear
4:54 PM 46.9 °F - 30.9 °F 54% 30.61 in 10.0 mi NNW 5.8 mph - N/A   Mostly Cloudy
5:54 PM 43.0 °F 40.3 °F 30.0 °F 60% 30.59 in 10.0 mi NNE 4.6 mph - N/A   Clear
6:54 PM 42.1 °F 39.2 °F 28.9 °F 60% 30.60 in 10.0 mi North 4.6 mph - N/A   Clear
7:54 PM 41.0 °F 39.0 °F 28.9 °F 62% 30.60 in 10.0 mi NNW 3.5 mph - N/A   Clear
8:54 PM 39.0 °F 36.8 °F 30.0 °F 70% 30.60 in 10.0 mi North 3.5 mph - N/A   Clear
9:54 PM 39.9 °F 36.7 °F 33.1 °F 77% 30.61 in 10.0 mi NNW 4.6 mph - N/A   Partly Cloudy
10:54 PM 41.0 °F 37.1 °F 33.1 °F 73% 30.61 in 10.0 mi North 5.8 mph - N/A   Partly Cloudy
11:54 PM 41.0 °F 39.0 °F 35.1 °F 79% 30.60 in 10.0 mi North 3.5 mph - N/A   Clear